Starlink 11147

operational
NORAD ID: 60301 Int'l Des: 2024-133 Owner: SPXS Country: US Constellation: starlink
LEOCIRCULAR

关于 Starlink 11147

正在加载描述...

实时位置

正在加载3D地球...

即将过境

高度历史

Altitude vs Time

uPlot chart will show altitude changes over time

两行轨道根数

1 60301U 24133A 26037.95329165 .00015255 00000-0 13053-3 0 9994
2 60301 53.1576 297.9601 0001206 71.5873 288.5276 15.69712470 88908
Epoch: Feb 6, 2026 • Age: 17 hours

当前状态

高度 365.3 km
速度 7.70 km/s
星下点 52.36°N, 20.01°E
发射日期 Jul 28, 2024
运行时间 1.5 years
类型 internet

技术详情

分类 Payload
质量 960.00 kg
干质量 910.00 kg
总质量 960.00 kg
长度 0.30 m
直径 4.10 m
跨度 29.00 m
形状 Box + pan
制造商 SPXS
平台类型 Starlink V2MD
阶段状态 In Orbit
所有者/国家 SPXS/US

大型星座

Loading constellations...